Weather History for Traverse City, MI

Change the Weather History Date:

Saturday, January 25, 2014

  Actual Average Record
Temperature  
Mean Temperature 16 °F 21 °F  
Max Temperature 27 °F 28 °F 55 °F (1950)
Min Temperature 4 °F 14 °F -15 °F (1904)
Degree Days  
Heating Degree Days 49 44  
Month to date heating degree days 1168 1085  
Since 1 July heating degree days 3989 3893  
Moisture  
Dew Point 7 °F    
Average Humidity 73    
Maximum Humidity 88    
Minimum Humidity 58    
Precipitation  
Precipitation 0.04 in 0.08 in 1.59 in (1950)
Month to date precipitation 0.91 2.35  
Year to date precipitation 0.91 2.35  
Snow  
Snow 0.00 in - - ()
Snow Depth 19.00 in    
Sea Level Pressure  
Sea Level Pressure 29.43 in    
Wind  
Wind Speed 16 mph (NW)    
Max Wind Speed 26 mph    
Max Gust Speed 36 mph    
Visibility 3 miles    
Events Fog , Snow    
T = Trace of Precipitation, MM = Missing Value Source: NWS Daily Summary

Daily Weather History Graph

Daily Weather History Graph

Search for Another Location

Airport:

Trip Planner

Search our weather history database for the weather conditions in past years. The results will help you decide how hot, cold, wet, or windy it might be!

Date:

Astronomy

Jan. 25, 2014 Rise Set
Actual Time 8:08 AM EST 5:41 PM EST
Civil Twilight 7:37 AM EST 6:12 PM EST
Nautical Twilight 7:01 AM EST 6:48 PM EST
Astronomical Twilight 6:27 AM EST 7:22 PM EST
Moon 2:38 AM EST (1/25) 12:41 PM EST (1/25)
Length of Visible Light 10h 35m
Length of Day
9h 32m
Waning Crescent, 34% of the Moon is Illuminated
Jan 25
Waning Crescent
Jan 30
New
Feb 6
First Quarter
Feb 14
Full
Feb 22
Last Quarter

Hourly Weather History & Observations

Time (EST) Temp. Windchill Dew Point Humidity Pressure Visibility Wind Dir Wind Speed Gust Speed Precip Events Conditions
12:53 AM 26.1 °F 19.4 °F 23.0 °F 88% 29.25 in 0.8 mi WSW 5.8 mph - 0.03 in Snow Light Snow
1:23 AM 26.1 °F 18.4 °F 23.0 °F 88% 29.20 in 1.0 mi West 6.9 mph - 0.00 in Snow Light Snow
1:53 AM 26.1 °F 18.4 °F 21.9 °F 84% 29.23 in 2.0 mi WNW 6.9 mph - 0.01 in Snow Light Snow
2:04 AM 26.1 °F 19.4 °F 21.9 °F 84% 29.19 in 2.5 mi WNW 5.8 mph - 0.00 in Snow Light Snow
2:19 AM 25.0 °F 18.1 °F 21.9 °F 88% 29.19 in 1.8 mi West 5.8 mph - 0.00 in Snow Light Snow
2:31 AM 26.1 °F 17.6 °F 21.9 °F 84% 29.19 in 2.0 mi West 8.1 mph - 0.00 in Snow Light Snow
2:51 AM 26.6 °F 17.5 °F 23.0 °F 86% 29.19 in 1.5 mi West 9.2 mph - 0.00 in Snow Light Snow
2:53 AM 26.1 °F 16.8 °F 23.0 °F 88% 29.22 in 1.5 mi West 9.2 mph - 0.00 in Snow Light Snow
3:08 AM 26.1 °F 16.2 °F 21.9 °F 84% 29.20 in 2.0 mi WNW 10.4 mph - 0.00 in Snow Light Snow
3:17 AM 26.1 °F 15.0 °F 23.0 °F 88% 29.20 in 1.5 mi West 12.7 mph - 0.00 in Snow Light Snow
3:34 AM 26.1 °F 15.0 °F 21.9 °F 84% 29.19 in 3.0 mi West 12.7 mph 20.7 mph 0.00 in Snow Light Snow
3:44 AM 27.0 °F 13.2 °F 21.9 °F 81% 29.20 in 2.0 mi WNW 20.7 mph 25.3 mph 0.00 in Snow Light Snow
3:48 AM 26.6 °F 13.8 °F 21.2 °F 80% 29.21 in 0.8 mi NNW 17.3 mph 31.1 mph 0.00 in Snow Light Snow
3:53 AM 25.0 °F 10.9 °F 21.9 °F 88% 29.24 in 0.5 mi NW 19.6 mph 31.1 mph 0.00 in Fog , Snow Snow
4:13 AM 24.1 °F 9.8 °F 19.9 °F 84% 29.22 in 1.0 mi NNW 19.6 mph 29.9 mph 0.00 in Snow Light Snow
4:25 AM 23.0 °F 9.6 °F 18.0 °F 81% 29.23 in 1.2 mi NNW 16.1 mph 23.0 mph 0.00 in Snow Light Snow
4:45 AM 23.0 °F 9.6 °F 15.1 °F 72% 29.23 in 3.0 mi NW 16.1 mph 24.2 mph 0.00 in Snow Light Snow
4:53 AM 23.0 °F 10.6 °F 14.0 °F 68% 29.27 in 7.0 mi NW 13.8 mph 24.2 mph 0.00 in   Overcast
5:53 AM 21.0 °F 5.0 °F 12.0 °F 68% 29.30 in 5.0 mi NW 21.9 mph 28.8 mph 0.00 in Snow Light Snow
6:31 AM 19.0 °F 3.2 °F 9.0 °F 65% 29.29 in 2.5 mi NNW 19.6 mph 33.4 mph 0.00 in Snow Light Snow
6:41 AM 18.0 °F 1.3 °F 8.1 °F 65% 29.30 in 1.5 mi NNW 20.7 mph 35.7 mph 0.00 in Snow Light Snow
6:53 AM 18.0 °F 1.7 °F 7.0 °F 62% 29.34 in 1.8 mi NNW 19.6 mph 28.8 mph 0.00 in Snow Light Snow
6:55 AM 18.0 °F 1.3 °F 7.0 °F 62% 29.31 in 3.0 mi NNW 20.7 mph 27.6 mph 0.00 in Snow Light Snow
7:43 AM 16.0 °F -1.3 °F 3.9 °F 59% 29.34 in 2.5 mi NNW 20.7 mph 29.9 mph 0.00 in Snow Light Snow
7:53 AM 16.0 °F -1.7 °F 3.9 °F 59% 29.38 in 5.0 mi NNW 21.9 mph 27.6 mph 0.00 in   Haze
8:25 AM 14.0 °F -4.7 °F 3.0 °F 62% 29.37 in 5.0 mi NNW 23.0 mph 31.1 mph 0.00 in Snow Light Snow
8:53 AM 14.0 °F -3.9 °F 1.0 °F 56% 29.42 in 5.0 mi NW 20.7 mph 29.9 mph 0.00 in Snow Light Snow
9:53 AM 12.9 °F -3.4 °F 1.0 °F 59% 29.44 in 5.0 mi NNW 16.1 mph 27.6 mph 0.00 in Snow Light Snow
10:18 AM 12.9 °F -4.9 °F 3.9 °F 67% 29.42 in 1.0 mi NNW 19.6 mph 27.6 mph 0.00 in Snow Light Snow
10:53 AM 12.0 °F -5.1 °F 7.0 °F 80% 29.47 in 1.0 mi NNW 17.3 mph 23.0 mph 0.00 in Snow Light Snow
11:20 AM 10.9 °F -7.9 °F 3.9 °F 73% 29.45 in 1.0 mi NW 20.7 mph 27.6 mph 0.00 in Snow Light Snow
11:53 AM 10.9 °F -8.8 °F 1.0 °F 64% 29.49 in 1.0 mi NW 23.0 mph 33.4 mph 0.00 in Snow Light Snow
12:00 PM 10.9 °F -7.5 °F -0.0 °F 61% 29.46 in 5.0 mi WNW 19.6 mph 31.1 mph 0.00 in Snow Light Snow
12:53 PM 10.0 °F -8.1 °F 1.9 °F 70% 29.51 in 4.0 mi NW 18.4 mph 27.6 mph 0.00 in Snow Light Snow
1:36 PM 9.0 °F -11.0 °F 1.0 °F 70% 29.48 in 1.0 mi NW 21.9 mph 29.9 mph 0.00 in Snow Light Snow
1:53 PM 10.0 °F -9.1 °F -0.0 °F 64% 29.52 in 1.0 mi NW 20.7 mph 31.1 mph 0.00 in Snow Light Snow
2:07 PM 10.0 °F -9.5 °F -0.9 °F 61% 29.50 in 2.0 mi NW 21.9 mph 26.5 mph 0.00 in Snow Blowing Snow
2:20 PM 10.0 °F -9.5 °F -2.9 °F 56% 29.50 in 7.0 mi NW 21.9 mph 28.8 mph 0.00 in   Overcast
2:53 PM 10.0 °F -8.6 °F -0.9 °F 61% 29.55 in 6.0 mi NW 19.6 mph 26.5 mph 0.00 in Snow Blowing Snow
3:01 PM 8.1 °F -10.7 °F 1.0 °F 73% 29.52 in 2.0 mi NW 18.4 mph 29.9 mph 0.00 in Snow Light Snow
3:10 PM 8.1 °F -11.2 °F 1.0 °F 73% 29.53 in 1.0 mi NW 19.6 mph 27.6 mph 0.00 in Snow Light Snow
3:22 PM 8.1 °F -11.7 °F -2.0 °F 64% 29.53 in 3.0 mi WNW 20.7 mph 29.9 mph 0.00 in Snow Light Snow
3:39 PM 8.1 °F -10.7 °F -0.0 °F 70% 29.54 in 1.0 mi NW 18.4 mph 31.1 mph 0.00 in Snow Light Snow
3:43 PM 8.1 °F -10.7 °F 3.0 °F 80% 29.55 in 0.5 mi NW 18.4 mph 25.3 mph 0.00 in Snow Snow
3:53 PM 7.0 °F -11.6 °F 3.9 °F 87% 29.59 in 0.5 mi NW 17.3 mph 26.5 mph 0.00 in Snow Snow
4:18 PM 7.0 °F -11.6 °F 1.9 °F 80% 29.57 in 2.0 mi WNW 17.3 mph - 0.00 in Snow Light Snow
4:43 PM 7.0 °F -11.6 °F -4.0 °F 61% 29.58 in 5.0 mi WNW 17.3 mph 27.6 mph 0.00 in Snow Blowing Snow
4:53 PM 7.0 °F -12.1 °F -5.1 °F 58% 29.62 in 7.0 mi WNW 18.4 mph - 0.00 in   Mostly Cloudy
5:04 PM 6.1 °F -13.8 °F -0.9 °F 73% 29.60 in 1.5 mi WNW 19.6 mph - 0.00 in Snow Light Snow
5:25 PM 6.1 °F -10.9 °F -0.0 °F 76% 29.61 in 2.0 mi WNW 13.8 mph - 0.00 in Snow Light Snow
5:53 PM 6.1 °F -12.8 °F -4.0 °F 63% 29.66 in 2.0 mi WNW 17.3 mph - 0.00 in Snow Light Snow
6:21 PM 6.1 °F -10.9 °F -5.1 °F 60% 29.64 in 2.0 mi NW 13.8 mph - 0.00 in Snow Light Snow
6:31 PM 6.1 °F -10.2 °F -4.0 °F 63% 29.64 in 4.0 mi WNW 12.7 mph - 0.00 in Snow Light Snow
6:53 PM 6.1 °F -9.5 °F -4.0 °F 63% 29.69 in 4.0 mi WNW 11.5 mph - 0.00 in Snow Light Snow
7:53 PM 5.0 °F -10.8 °F -5.1 °F 63% 29.70 in 9.0 mi West 11.5 mph - 0.00 in   Overcast
8:53 PM 5.0 °F -12.3 °F -4.0 °F 66% 29.71 in 5.0 mi WNW 13.8 mph - 0.00 in Snow Light Snow
9:53 PM 5.0 °F -14.7 °F -5.1 °F 63% 29.72 in 3.0 mi WNW 18.4 mph 28.8 mph 0.00 in   Haze
10:53 PM 5.0 °F -14.2 °F -6.0 °F 61% 29.73 in 5.0 mi WNW 17.3 mph - N/A   Haze
11:17 PM 5.0 °F -10.0 °F -4.0 °F 66% 29.68 in 2.5 mi WNW 10.4 mph - 0.00 in Snow Light Snow
11:29 PM 3.9 °F -8.2 °F -2.9 °F 73% 29.68 in 3.0 mi West 6.9 mph - 0.00 in Snow Light Snow
11:53 PM 5.0 °F -10.8 °F -2.9 °F 70% 29.73 in 7.0 mi West 11.5 mph - 0.00 in   Overcast